Flag for Madagascar Weather past 2 weeks in Antananarivo, Madagascar

Now
68 °F

Passing clouds.


Feels Like: 68 °F
Forecast: 61 / 85 °F
Wind: 8 mph from East

Location: Antananarivo / Ivato

Current Time: Mar 30, 2015 at 11:35:30 PM

Latest Report: Mar 30, 2015 at 11:00 PM


Visibility: N/A

Pressure: 30.15 "Hg

Humidity: 100%

Dew point: 68 °F

Location of AntananarivoLocation

Historic Weather in Antananarivo — Graph

°F

Antananarivo temperature yesterday

Maximum temperature yesterday: 81 °F (at 1:00 PM)
Minimum temperature yesterday: 63 °F (at 6:00 AM)
Average temperature yesterday: 71 °F

Past Weeks' High & Low Weather Summary

 TemperatureHumidityPressure
High86 °F (Mar 18, 2:30 PM)100% (Mar 15, 10:00 PM)30.27 "Hg (Mar 15, 10:00 PM)
Low57 °F (Mar 17, 5:00 AM)43% (Mar 19, 2:30 PM)30.07 "Hg (Mar 28, 3:00 PM)
Average70 °F87%30.19 "Hg
* Reported Mar 15 10:00 PM — Mar 30 10:00 PM, Antananarivo, Weather by CustomWeather, © 2015

Note: Actual official high and low records may vary slightly from our data, if they occured in-between our weather recording intervals... More about our weather records

Advertising

Antananarivo weather history for previous 24 hours

 ConditionsComfort  
Time TempWeatherWind HumidityBarometerVisibility
10:00 PM
Mon, Mar 30
70 °FPassing clouds.5 mph100%30.18 "HgN/A
9:30 PM70 °FPassing clouds.6 mph100%30.18 "HgN/A
9:00 PM70 °FThundershowers. Passing clouds.5 mph100%30.15 "HgN/A
8:30 PM70 °FThundershowers. Passing clouds.6 mph100%30.15 "HgN/A
8:00 PM72 °FThundershowers. Partly cloudy.7 mph94%30.15 "HgN/A
7:30 PM73 °FThundershowers. Partly cloudy.8 mph89%30.15 "HgN/A
7:00 PM73 °FThundershowers. Passing clouds.2 mph83%30.15 "HgN/A
6:30 PM73 °FThundershowers. Partly cloudy.3 mph83%30.12 "HgN/A
6:00 PM73 °FThunderstorms. Partly cloudy.5 mph89%30.09 "HgN/A
5:00 PM77 °FThunderstorms. Broken clouds.8 mph79%30.07 "HgN/A
4:54 PM77 °FThunderstorms. Broken clouds.8 mph79%30.07 "HgN/A
4:30 PM82 °FBroken clouds.2 mph55%30.07 "HgN/A
4:00 PM82 °FBroken clouds.2 mph48%30.07 "HgN/A
3:30 PM82 °FBroken clouds.5 mph51%30.07 "HgN/A
3:00 PM86 °FScattered clouds.3 mph43%30.07 "HgN/A
2:30 PM84 °FScattered clouds.1 mph48%30.07 "HgN/A
2:00 PM86 °FScattered clouds.3 mph49%30.09 "HgN/A
1:30 PM86 °FScattered clouds.6 mph49%30.09 "HgN/A
1:00 PM84 °FScattered clouds.6 mph58%30.09 "HgN/A
12:30 PM84 °FScattered clouds.3 mph51%30.12 "HgN/A
12:00 PM84 °FScattered clouds.3 mph58%30.12 "HgN/A
11:30 AM82 °FBroken clouds.3 mph66%30.15 "HgN/A
11:00 AM81 °FPartly sunny.5 mph74%30.15 "HgN/A
10:30 AM79 °FPartly sunny.5 mph79%30.18 "HgN/A
10:00 AM75 °FScattered clouds.2 mph89%30.18 "HgN/A
9:30 AM73 °FScattered clouds.1 mph94%30.18 "Hg6 mi
9:00 AM72 °FScattered clouds.2 mph100%30.18 "Hg5 mi
8:30 AM68 °FBroken clouds.3 mph100%30.18 "Hg4 mi
8:00 AM66 °FBroken clouds.2 mph100%30.18 "Hg4 mi
7:30 AM64 °FScattered clouds.1 mph100%30.18 "HgN/A
7:00 AM63 °FScattered clouds.1 mph100%30.15 "HgN/A
6:30 AM61 °FScattered clouds.5 mph100%30.15 "HgN/A
6:00 AM59 °FScattered clouds.1 mph100%30.15 "HgN/A
5:30 AM59 °FPassing clouds.5 mph100%30.15 "HgN/A
5:00 AM59 °FPassing clouds.2 mph100%30.12 "HgN/A
4:30 AM61 °FPassing clouds.6 mph100%30.12 "HgN/A
4:00 AM61 °FPassing clouds.2 mph100%30.12 "HgN/A
3:30 AM61 °FPassing clouds.No wind100%30.12 "HgN/A
3:00 AM61 °FPassing clouds.No wind100%30.12 "HgN/A
2:30 AM61 °FPassing clouds.2 mph100%30.12 "HgN/A
2:00 AM61 °FThundershowers. Passing clouds.3 mph100%30.12 "HgN/A
1:30 AM63 °FThundershowers. Passing clouds.1 mph100%30.12 "HgN/A
1:00 AM63 °FPassing clouds.3 mph100%30.12 "HgN/A
12:30 AM64 °FThundershowers. Passing clouds.6 mph100%30.12 "HgN/A
12:00 AM64 °FThundershowers. Passing clouds.5 mph100%30.15 "HgN/A
11:30 PM
Sun, Mar 29
64 °FThundershowers. Passing clouds.5 mph100%30.15 "HgN/A
11:00 PM64 °FThundershowers. Passing clouds.3 mph100%30.15 "HgN/A
Weather by CustomWeather, © 2015

See weather overviewHow to use our weather pages